Location: East Arcadia
(34.1056°N, 118.0176°W)
Time: 00:37:30
(UTC+00:00)

H-2A R/B - Pass Details

Date: 01 April 2023
Orbit: 477 x 506 km, 97.4° (Epoch: 03 April)

Event Time Altitude Azimuth Distance (km) Brightness Sun altitude
Rises 12:52:45 0° 359° (N) 2,548 6.4 -10.4°
Reaches altitude 10° 12:54:59 10° 348° (NNW) 1,661 5.3 -9.9°
Maximum altitude 12:58:07 29° 287° (WNW) 893 3.4 -9.3°
Drops below altitude 10° 13:01:13 10° 225° (SW) 1,643 4.7 -8.7°
Enters shadow 13:02:18 - 218° (SW) 2,060 5.3 -8.5°
